Date String (YYYY-MM-DD hh:mm:ss) UTC,Instrument flags,Ambient pressure (hPa),Sample flow (lpm),Bypass flow (lpm),Sample temperature (°C),Ambient temperature (°C),ASC tube jacket temperature (°C),LED temperature (°C),Box temperature (°C),Sample RH (%),Span deviation,Mass concentration (μg/m³),Mass concentration (μg/m³),Mass concentration (μg/m³)
DateTimeUTC,F1_M11,P_M11,Q1_M11,Q2_M11,T1_M11,T2_M11,T3_M11,T4_M11,T5_M11,U1_M11,ZSPAN_M11,X0_M11,X2_M11,X1_M11
2021-12-05 18:00:00,,0818.2,5.00,0.00,25.6,24.7,00.0,34.5,27.3,06.3,0000.0,0007.69,0001.25,0000.46
2021-12-05 18:01:00,,0818.0,4.99,0.00,25.6,24.7,00.0,34.5,27.3,06.4,0000.0,0007.76,0001.25,0000.46
2021-12-05 18:02:00,,0818.2,5.00,0.00,25.6,24.7,00.0,34.5,27.3,06.4,0000.0,0007.63,0001.18,0000.46
2021-12-05 18:03:00,,0818.4,5.01,0.00,25.5,24.7,00.0,34.5,27.3,06.4,0000.0,0007.75,0001.17,0000.47
2021-12-05 18:04:00,,0818.5,4.98,0.00,25.5,24.7,00.0,34.5,27.3,06.5,0000.0,0007.36,0001.13,0000.46
2021-12-05 18:05:00,,0818.4,5.02,0.00,25.6,24.7,00.0,34.5,27.3,06.5,0000.0,0006.61,0001.11,0000.45
2021-12-05 18:06:00,,0818.0,4.98,0.00,25.6,24.7,00.0,34.5,27.3,06.6,0000.0,0006.92,0001.12,0000.46
2021-12-05 18:07:00,,0818.1,5.00,0.00,25.6,24.7,00.0,34.5,27.3,06.6,0000.0,0006.26,0001.10,0000.47
2021-12-05 18:08:00,,0818.3,5.00,0.00,25.6,24.7,00.0,34.5,27.3,06.5,0000.0,0005.85,0001.16,0000.47
2021-12-05 18:09:00,,0818.2,5.00,0.00,25.6,24.7,00.0,34.5,27.3,06.5,0000.0,0005.48,0001.18,0000.47
2021-12-05 18:10:00,,0818.2,5.00,0.00,25.6,24.7,00.0,34.5,27.3,06.6,0000.0,0005.18,0001.17,0000.46
2021-12-05 18:11:00,,0818.3,5.01,0.00,25.6,24.7,00.0,34.6,27.3,06.5,0000.0,0005.36,0001.13,0000.46
2021-12-05 18:12:00,,0818.2,5.00,0.00,25.6,24.7,00.0,34.6,27.3,06.4,0000.0,0005.18,0001.09,0000.46
2021-12-05 18:13:00,,0818.4,4.98,0.00,25.6,24.6,00.0,34.6,27.3,06.4,0000.0,0005.18,0001.11,0000.46
2021-12-05 18:14:00,,0818.4,5.01,0.00,25.6,24.6,00.0,34.6,27.3,06.4,0000.0,0005.21,0001.15,0000.45
2021-12-05 18:15:00,,0818.4,5.01,0.00,25.6,24.7,00.0,34.6,27.3,06.6,0000.0,0005.09,0001.17,0000.45
2021-12-05 18:16:00,,0818.2,4.99,0.00,25.6,24.7,00.0,34.6,27.3,06.7,0000.0,0004.82,0001.15,0000.46
2021-12-05 18:17:00,,0818.3,5.01,0.00,25.6,24.7,00.0,34.6,27.3,06.7,0000.0,0004.02,0001.14,0000.45
2021-12-05 18:18:00,,0818.4,5.00,0.00,25.6,24.7,00.0,34.6,27.4,06.8,0000.0,0004.06,0001.12,0000.44
2021-12-05 18:19:00,,0818.4,5.01,0.00,25.6,24.7,00.0,34.6,27.3,06.7,0000.0,0004.37,0001.04,0000.43
2021-12-05 18:20:00,,0818.4,5.00,0.00,25.6,24.7,00.0,34.6,27.3,06.6,0000.0,0004.37,0000.99,0000.42
2021-12-05 18:21:00,,0818.4,4.99,0.00,25.6,24.7,00.0,34.6,27.3,06.8,0000.0,0004.75,0000.99,0000.42
2021-12-05 18:22:00,,0818.4,5.00,0.00,25.6,24.6,00.0,34.6,27.2,06.8,0000.0,0004.54,0000.98,0000.41
2021-12-05 18:23:00,,0818.5,5.01,0.00,25.6,24.6,00.0,34.6,27.2,06.9,0000.0,0004.42,0000.99,0000.41
2021-12-05 18:24:00,,0818.3,4.99,0.00,25.6,24.6,00.0,34.6,27.3,06.9,0000.0,0004.72,0000.99,0000.41
2021-12-05 18:25:00,,0818.4,5.01,0.00,25.6,24.6,00.0,34.6,27.3,06.7,0000.0,0005.31,0000.95,0000.42
2021-12-05 18:26:00,,0818.2,4.99,0.00,25.6,24.7,00.0,34.6,27.3,06.5,0000.0,0005.28,0000.93,0000.43
2021-12-05 18:27:00,,0818.3,5.00,0.00,25.6,24.7,00.0,34.6,27.4,06.5,0000.0,0005.38,0000.92,0000.43
2021-12-05 18:28:00,,0818.4,5.01,0.00,25.6,24.7,00.0,34.6,27.3,06.6,0000.0,0005.47,0000.95,0000.44
2021-12-05 18:29:00,,0818.5,4.98,0.00,25.6,24.7,00.0,34.6,27.3,06.7,0000.0,0005.66,0000.99,0000.44
2021-12-05 18:30:00,,0818.4,5.01,0.00,25.6,24.7,00.0,34.6,27.4,06.7,0000.0,0005.94,0001.08,0000.45
2021-12-05 18:31:00,,0818.5,4.99,0.00,25.6,24.7,00.0,34.6,27.3,06.6,0000.0,0005.91,0001.12,0000.46
2021-12-05 18:32:00,,0818.4,5.00,0.00,25.6,24.7,00.0,34.6,27.3,06.6,0000.0,0005.20,0001.10,0000.45
2021-12-05 18:33:00,,0818.3,5.00,0.00,25.6,24.7,00.0,34.6,27.3,06.8,0000.0,0005.63,0001.11,0000.46
2021-12-05 18:34:00,,0818.2,4.99,0.00,25.6,24.7,00.0,34.6,27.2,06.8,0000.0,0006.61,0001.12,0000.46
2021-12-05 18:35:00,,0818.3,5.00,0.00,25.6,24.7,00.0,34.6,27.3,06.7,0000.0,0006.69,0001.12,0000.45
2021-12-05 18:36:00,,0818.3,4.99,0.00,25.6,24.7,00.0,34.6,27.4,06.5,0000.0,0005.98,0001.12,0000.44
2021-12-05 18:37:00,,0818.2,4.99,0.00,25.6,24.7,00.0,34.6,27.3,06.6,0000.0,0006.00,0001.11,0000.43
2021-12-05 18:38:00,,0818.5,5.00,0.00,25.6,24.7,00.0,34.6,27.4,06.6,0000.0,0005.91,0001.09,0000.43
2021-12-05 18:39:00,,0818.1,4.99,0.00,25.6,24.8,00.0,34.6,27.4,06.6,0000.0,0005.70,0001.06,0000.43
2021-12-05 18:40:00,,0817.9,5.01,0.00,25.6,24.7,00.0,34.6,27.4,06.5,0000.0,0005.67,0001.06,0000.44
2021-12-05 18:41:00,,0818.0,5.00,0.00,25.6,24.7,00.0,34.6,27.4,06.4,0000.0,0005.41,0001.10,0000.45
2021-12-05 18:42:00,,0818.0,5.00,0.00,25.6,24.7,00.0,34.6,27.4,06.5,0000.0,0006.69,0001.10,0000.45
2021-12-05 18:43:00,,0818.2,5.00,0.00,25.6,24.7,00.0,34.6,27.4,06.6,0000.0,0007.07,0001.10,0000.46
2021-12-05 18:44:00,,0818.1,4.98,0.00,25.6,24.7,00.0,34.6,27.4,06.6,0000.0,0006.73,0001.12,0000.46
2021-12-05 18:45:00,,0818.2,5.01,0.00,25.6,24.7,00.0,34.6,27.3,06.5,0000.0,0005.89,0001.17,0000.46
2021-12-05 18:46:00,,0818.0,5.01,0.00,25.6,24.7,00.0,34.6,27.4,06.6,0000.0,0005.33,0001.16,0000.47
2021-12-05 18:47:00,,0818.3,5.00,0.00,25.6,24.7,00.0,34.6,27.3,06.5,0000.0,0005.71,0001.21,0000.48
2021-12-05 18:48:00,,0818.4,5.02,0.00,25.5,24.7,00.0,34.6,27.3,06.6,0000.0,0005.95,0001.27,0000.49
2021-12-05 18:49:00,,0818.4,4.98,0.00,25.5,24.7,00.0,34.6,27.3,06.7,0000.0,0006.42,0001.30,0000.50
2021-12-05 18:50:00,,0818.5,5.00,0.00,25.5,24.7,00.0,34.6,27.3,06.8,0000.0,0006.50,0001.29,0000.50
2021-12-05 18:51:00,,0818.5,5.00,0.00,25.5,24.7,00.0,34.6,27.3,06.9,0000.0,0007.14,0001.34,0000.50
2021-12-05 18:52:00,,0818.5,4.99,0.00,25.5,24.6,00.0,34.6,27.3,06.9,0000.0,0006.74,0001.23,0000.49
2021-12-05 18:53:00,,0818.5,5.01,0.00,25.5,24.6,00.0,34.6,27.2,07.0,0000.0,0005.56,0001.20,0000.49
2021-12-05 18:54:00,,0818.4,4.99,0.00,25.5,24.6,00.0,34.6,27.2,07.0,0000.0,0005.20,0001.24,0000.50
2021-12-05 18:55:00,,0818.4,5.01,0.00,25.5,24.6,00.0,34.6,27.2,07.0,0000.0,0004.71,0001.24,0000.51
2021-12-05 18:56:00,,0818.3,5.01,0.00,25.6,24.6,00.0,34.6,27.3,06.9,0000.0,0004.98,0001.20,0000.50
2021-12-05 18:57:00,,0818.3,4.99,0.00,25.6,24.6,00.0,34.6,27.3,06.9,0000.0,0005.49,0001.19,0000.51
2021-12-05 18:58:00,,0818.3,5.01,0.00,25.6,24.7,00.0,34.6,27.3,06.6,0000.0,0005.94,0001.17,0000.51
2021-12-05 18:59:00,,0818.0,4.99,0.00,25.5,24.7,00.0,34.6,27.3,06.6,0000.0,0006.12,0001.12,0000.51
